User: anonymous   Login
Location: Ottawa
(45.4170°N, 75.7000°W)
Time: 00:39:42
(UTC-05:00)
Language:

Aureole 3 Rocket - Orbit

View from above orbital plane
View from above orbital plane
View from above satellite
View from above satellite

Ground track
Ground track

The orbit data is extracted from the following two-line orbital elements,

1 12849U 81094B   18023.42523016  .00000174  00000-0  13350-4 0  9991
2 12849  82.4932 357.7096 0902533 182.7237 176.8812 13.50295386771643
Epoch (UTC): 23 January 2018 10:12:19
Eccentricity: 0.0902533
inclination: 82.4932°
perigee height: 399 km
apogee height: 1743 km
right ascension of ascending node: 357.7096°
argument of perigee: 182.7237°
revolutions per day: 13.50295386
mean anomaly at epoch: 176.8812°
orbit number at epoch: 77164

The dashed part of the orbit path shows where the satellite is in the earth's shadow,  

DLR